SWA729 KBNA-KPIT

Flight info

Callsign SWA729
Flight time 1h 9m
Altitude 37000
Route KRSTA4 OLSIE IIU HNN FEWGA7
Aircraft B737/M-SDE2E3FGHIRWXY/LB1

Departure

Time 2026-05-06 00:59
Airport Nashville International Airport (KBNA)

Arrival

Time 2026-05-06 02:08
Airport Pittsburgh International Airport (KPIT)
Time Latitude Longitude Altitude Speed Heading
2026-05-06 00:42 36.12683 -86.66702 569 ft 0 kts 108°
2026-05-06 00:49 36.12684 -86.66706 569 ft 2 kts 108°
2026-05-06 00:49 36.12689 -86.66726 572 ft 2 kts 108°
2026-05-06 00:49 36.12694 -86.66745 570 ft 2 kts 108°
2026-05-06 00:49 36.12701 -86.66763 571 ft 2 kts 144°
2026-05-06 00:50 36.12712 -86.66769 572 ft 1 kts 191°
2026-05-06 00:50 36.12715 -86.66769 571 ft 0 kts 192°
2026-05-06 00:52 36.12702 -86.66779 571 ft 8 kts 224°
2026-05-06 00:52 36.12657 -86.66853 572 ft 11 kts 248°
2026-05-06 00:52 36.12658 -86.66940 570 ft 10 kts 302°
2026-05-06 00:53 36.12706 -86.67012 570 ft 12 kts 310°
2026-05-06 00:53 36.12775 -86.67113 568 ft 17 kts 311°
2026-05-06 00:53 36.12852 -86.67225 570 ft 17 kts 295°
2026-05-06 00:53 36.12796 -86.67341 577 ft 16 kts 223°
2026-05-06 00:54 36.12712 -86.67434 578 ft 16 kts 214°
2026-05-06 00:54 36.12617 -86.67499 575 ft 15 kts 209°
2026-05-06 00:54 36.12538 -86.67581 577 ft 15 kts 223°
2026-05-06 00:54 36.12464 -86.67663 581 ft 14 kts 212°
2026-05-06 00:55 36.12403 -86.67690 578 ft 14 kts 197°
2026-05-06 00:55 36.12361 -86.67772 577 ft 13 kts 286°
2026-05-06 00:55 36.12382 -86.67849 581 ft 0 kts 289°
2026-05-06 00:58 36.12393 -86.67890 579 ft 14 kts 288°
2026-05-06 00:59 36.12357 -86.67988 575 ft 14 kts 198°
2026-05-06 00:59 36.12057 -86.68108 575 ft 88 kts 198°
2026-05-06 00:59 36.11235 -86.68441 679 ft 151 kts 197°
2026-05-06 00:59 36.10165 -86.68885 1411 ft 174 kts 197°
2026-05-06 01:00 36.09041 -86.69430 2521 ft 166 kts 216°
2026-05-06 01:00 36.08401 -86.70641 3538 ft 181 kts 243°
2026-05-06 01:00 36.07924 -86.72240 3973 ft 217 kts 245°
2026-05-06 01:00 36.07378 -86.74075 4775 ft 233 kts 246°
2026-05-06 01:01 36.06848 -86.75968 5920 ft 233 kts 255°
2026-05-06 01:01 36.06754 -86.78000 6874 ft 245 kts 274°
2026-05-06 01:01 36.07140 -86.80070 7915 ft 247 kts 280°
2026-05-06 01:01 36.07574 -86.82143 8908 ft 251 kts 280°
2026-05-06 01:02 36.08169 -86.84206 9848 ft 263 kts 296°
2026-05-06 01:02 36.09428 -86.85946 10573 ft 288 kts 315°
2026-05-06 01:02 36.11368 -86.87071 10817 ft 334 kts 343°
2026-05-06 01:02 36.13781 -86.86940 11520 ft 359 kts
2026-05-06 01:03 36.16196 -86.86239 12386 ft 366 kts
2026-05-06 01:03 36.18683 -86.85430 13213 ft 372 kts
2026-05-06 01:03 36.21228 -86.84607 14072 ft 375 kts
2026-05-06 01:03 36.23771 -86.83817 14908 ft 377 kts
2026-05-06 01:04 36.26337 -86.83052 15673 ft 382 kts
2026-05-06 01:04 36.28938 -86.82292 16451 ft 386 kts
2026-05-06 01:04 36.31534 -86.81537 17200 ft 391 kts
2026-05-06 01:04 36.34104 -86.80255 17965 ft 408 kts 27°
2026-05-06 01:05 36.36277 -86.77921 18697 ft 419 kts 43°
2026-05-06 01:05 36.38234 -86.75215 19360 ft 424 kts 45°
2026-05-06 01:05 36.40182 -86.72435 19970 ft 429 kts 45°
2026-05-06 01:05 36.42150 -86.69622 20648 ft 433 kts 44°
2026-05-06 01:06 36.44141 -86.66801 21312 ft 436 kts 44°
2026-05-06 01:06 36.46163 -86.63963 21927 ft 440 kts 44°
2026-05-06 01:06 36.48212 -86.61107 22515 ft 445 kts 43°
2026-05-06 01:06 36.50284 -86.58224 23135 ft 449 kts 43°
2026-05-06 01:07 36.52368 -86.55324 23707 ft 452 kts 43°
2026-05-06 01:07 36.54465 -86.52402 24230 ft 455 kts 43°
2026-05-06 01:07 36.56581 -86.49459 24748 ft 457 kts 41°
2026-05-06 01:07 36.58973 -86.46925 25200 ft 447 kts 24°
2026-05-06 01:08 36.61745 -86.45288 25747 ft 439 kts 14°
2026-05-06 01:08 36.64592 -86.43912 26288 ft 439 kts 13°
2026-05-06 01:08 36.67455 -86.42540 26766 ft 443 kts 13°
2026-05-06 01:08 36.70329 -86.41108 27232 ft 447 kts 14°
2026-05-06 01:09 36.73213 -86.39615 27738 ft 451 kts 16°
2026-05-06 01:09 36.76062 -86.37922 28228 ft 456 kts 18°
2026-05-06 01:09 36.78894 -86.36088 28694 ft 460 kts 19°
2026-05-06 01:09 36.81729 -86.34197 29142 ft 464 kts 19°
2026-05-06 01:10 36.84582 -86.32291 29581 ft 466 kts 19°
2026-05-06 01:10 36.87460 -86.30385 29993 ft 469 kts 19°
2026-05-06 01:10 36.90353 -86.28488 30326 ft 472 kts 18°
2026-05-06 01:10 36.93235 -86.26612 30648 ft 474 kts 18°
2026-05-06 01:11 36.96171 -86.24708 30961 ft 477 kts 18°
2026-05-06 01:11 36.99129 -86.22791 31271 ft 480 kts 17°
2026-05-06 01:11 37.02094 -86.20866 31665 ft 480 kts 17°
2026-05-06 01:11 37.05051 -86.18941 32138 ft 478 kts 17°
2026-05-06 01:12 37.08000 -86.17019 32591 ft 477 kts 16°
2026-05-06 01:12 37.10941 -86.15103 32992 ft 477 kts 16°
2026-05-06 01:12 37.13884 -86.13185 33376 ft 477 kts 16°
2026-05-06 01:12 37.16827 -86.11265 33786 ft 476 kts 15°
2026-05-06 01:13 37.19759 -86.09350 34186 ft 474 kts 15°
2026-05-06 01:13 37.22665 -86.07427 34616 ft 474 kts 18°
2026-05-06 01:13 37.25399 -86.04987 35024 ft 490 kts 30°
2026-05-06 01:13 37.27842 -86.01939 35451 ft 500 kts 38°
2026-05-06 01:14 37.31766 -85.94532 36076 ft 520 kts 54°
2026-05-06 01:14 37.33372 -85.90447 36391 ft 522 kts 56°
2026-05-06 01:14 37.34921 -85.86327 36698 ft 522 kts 56°
2026-05-06 01:15 37.36460 -85.82189 36866 ft 524 kts 56°
2026-05-06 01:15 37.38019 -85.78035 36837 ft 526 kts 56°
2026-05-06 01:15 37.41175 -85.69756 36848 ft 522 kts 55°
2026-05-06 01:16 37.44331 -85.61586 36864 ft 518 kts 55°
2026-05-06 01:16 37.47488 -85.53444 36881 ft 517 kts 55°
2026-05-06 01:17 37.50632 -85.45310 36883 ft 517 kts 55°
2026-05-06 01:17 37.53767 -85.37165 36886 ft 517 kts 55°
2026-05-06 01:18 37.56896 -85.29006 36880 ft 517 kts 55°
2026-05-06 01:18 37.60021 -85.20835 36872 ft 517 kts 55°
2026-05-06 01:19 37.63142 -85.12655 36857 ft 518 kts 56°
2026-05-06 01:19 37.66243 -85.04506 36859 ft 518 kts 56°
2026-05-06 01:20 37.69360 -84.96292 36855 ft 519 kts 56°
2026-05-06 01:20 37.72472 -84.88067 36860 ft 519 kts 56°
2026-05-06 01:21 37.75581 -84.79831 36858 ft 520 kts 56°
2026-05-06 01:21 37.78686 -84.71583 36855 ft 520 kts 56°
2026-05-06 01:22 37.81784 -84.63332 36862 ft 520 kts 56°
2026-05-06 01:22 37.84883 -84.55056 36847 ft 520 kts 56°
2026-05-06 01:23 37.87973 -84.46780 36860 ft 520 kts 56°
2026-05-06 01:23 37.91055 -84.38502 36852 ft 520 kts 56°
2026-05-06 01:24 37.94131 -84.30220 36857 ft 519 kts 56°
2026-05-06 01:24 37.97196 -84.21943 36876 ft 519 kts 56°
2026-05-06 01:25 38.00255 -84.13662 36890 ft 519 kts 56°
2026-05-06 01:25 38.03306 -84.05380 36887 ft 518 kts 56°
2026-05-06 01:26 38.06329 -83.97149 36888 ft 518 kts 56°
2026-05-06 01:26 38.09381 -83.88819 36895 ft 517 kts 56°
2026-05-06 01:27 38.12389 -83.80587 36885 ft 517 kts 56°
2026-05-06 01:27 38.15406 -83.72305 36846 ft 517 kts 56°
2026-05-06 01:28 38.18418 -83.64016 36853 ft 516 kts 56°
2026-05-06 01:28 38.21420 -83.55729 36862 ft 516 kts 56°
2026-05-06 01:29 38.24418 -83.47432 36852 ft 516 kts 56°
2026-05-06 01:29 38.27407 -83.39136 36859 ft 516 kts 57°
2026-05-06 01:30 38.30388 -83.30840 36865 ft 516 kts 57°
2026-05-06 01:30 38.33363 -83.22539 36880 ft 516 kts 57°
2026-05-06 01:31 38.36337 -83.14218 36873 ft 516 kts 57°
2026-05-06 01:31 38.39300 -83.05899 36883 ft 515 kts 57°
2026-05-06 01:32 38.42257 -82.97580 36875 ft 515 kts 57°
2026-05-06 01:32 38.45211 -82.89244 36874 ft 515 kts 57°
2026-05-06 01:33 38.48155 -82.80913 36857 ft 516 kts 57°
2026-05-06 01:33 38.51097 -82.72562 36869 ft 515 kts 57°
2026-05-06 01:34 38.54029 -82.64214 36862 ft 515 kts 57°
2026-05-06 01:34 38.56959 -82.55852 36865 ft 515 kts 57°
2026-05-06 01:35 38.59882 -82.47485 36873 ft 515 kts 57°
2026-05-06 01:35 38.62797 -82.39119 36865 ft 516 kts 57°
2026-05-06 01:36 38.65709 -82.30734 36867 ft 515 kts 57°
2026-05-06 01:36 38.68612 -82.22349 36870 ft 515 kts 57°
2026-05-06 01:37 38.71514 -82.13951 36633 ft 518 kts 57°
2026-05-06 01:37 38.72954 -82.09776 36229 ft 518 kts 57°
2026-05-06 01:37 38.74428 -82.05593 35856 ft 510 kts 52°
2026-05-06 01:38 38.76368 -82.01937 35469 ft 486 kts 36°
2026-05-06 01:38 38.78826 -81.99137 35141 ft 464 kts 24°
2026-05-06 01:38 38.81468 -81.96681 34804 ft 462 kts 23°
2026-05-06 01:38 38.84119 -81.94282 34477 ft 474 kts 23°
2026-05-06 01:39 38.86862 -81.91811 34156 ft 488 kts 23°
2026-05-06 01:39 38.89654 -81.89260 33823 ft 496 kts 24°
2026-05-06 01:39 38.92443 -81.86663 33406 ft 494 kts 25°
2026-05-06 01:39 38.95202 -81.84058 33007 ft 490 kts 26°
2026-05-06 01:40 38.97888 -81.81505 32603 ft 484 kts 26°
2026-05-06 01:40 39.00582 -81.78944 32223 ft 481 kts 26°
2026-05-06 01:40 39.03267 -81.76397 31850 ft 479 kts 27°
2026-05-06 01:40 39.05948 -81.73859 31467 ft 477 kts 27°
2026-05-06 01:41 39.08617 -81.71332 31108 ft 476 kts 28°
2026-05-06 01:41 39.11281 -81.68809 30749 ft 475 kts 28°
2026-05-06 01:41 39.13937 -81.66291 30396 ft 473 kts 29°
2026-05-06 01:41 39.16585 -81.63777 30049 ft 472 kts 30°
2026-05-06 01:42 39.19225 -81.61267 29655 ft 471 kts 30°
2026-05-06 01:42 39.21859 -81.58760 29250 ft 469 kts 30°
2026-05-06 01:42 39.24479 -81.56263 28843 ft 468 kts 30°
2026-05-06 01:42 39.27088 -81.53774 28448 ft 465 kts 30°
2026-05-06 01:43 39.29681 -81.51299 28058 ft 463 kts 30°
2026-05-06 01:43 39.32262 -81.48832 27671 ft 460 kts 30°
2026-05-06 01:43 39.34824 -81.46382 27281 ft 457 kts 30°
2026-05-06 01:43 39.37371 -81.43945 26897 ft 454 kts 30°
2026-05-06 01:44 39.39914 -81.41510 26391 ft 455 kts 31°
2026-05-06 01:44 39.42416 -81.39112 25914 ft 452 kts 31°
2026-05-06 01:44 39.44930 -81.36699 25426 ft 449 kts 31°
2026-05-06 01:44 39.47432 -81.34298 24952 ft 445 kts 31°
2026-05-06 01:45 39.49906 -81.31925 24455 ft 440 kts 31°
2026-05-06 01:45 39.52353 -81.29576 23947 ft 436 kts 31°
2026-05-06 01:45 39.54780 -81.27244 23386 ft 434 kts 31°
2026-05-06 01:45 39.57200 -81.24917 22725 ft 431 kts 31°
2026-05-06 01:46 39.58820 -81.23357 22355 ft 428 kts 32°
2026-05-06 01:46 39.61200 -81.21062 21809 ft 424 kts 32°
2026-05-06 01:46 39.63522 -81.18822 21270 ft 420 kts 32°
2026-05-06 01:46 39.65886 -81.16540 20941 ft 418 kts 32°
2026-05-06 01:47 39.68233 -81.14276 20896 ft 420 kts 32°
2026-05-06 01:47 39.70584 -81.12006 20177 ft 428 kts 32°
2026-05-06 01:47 39.72976 -81.09698 19426 ft 433 kts 32°
2026-05-06 01:47 39.75369 -81.07377 18638 ft 425 kts 32°
2026-05-06 01:48 39.77732 -81.05079 17988 ft 412 kts 32°
2026-05-06 01:48 39.80014 -81.02859 17399 ft 408 kts 32°
2026-05-06 01:48 39.82273 -81.00664 16954 ft 401 kts 32°
2026-05-06 01:48 39.84467 -80.98531 16450 ft 397 kts 32°
2026-05-06 01:49 39.86663 -80.96396 15941 ft 393 kts 32°
2026-05-06 01:49 39.88845 -80.94274 15434 ft 390 kts 32°
2026-05-06 01:49 39.91009 -80.92166 14920 ft 387 kts 32°
2026-05-06 01:49 39.93158 -80.90072 14394 ft 385 kts 32°
2026-05-06 01:50 39.95293 -80.87989 13874 ft 383 kts 32°
2026-05-06 01:50 39.97419 -80.85914 13319 ft 381 kts 33°
2026-05-06 01:50 39.99530 -80.83851 12768 ft 378 kts 33°
2026-05-06 01:50 40.01624 -80.81799 12249 ft 375 kts 34°
2026-05-06 01:51 40.04124 -80.78926 11600 ft 372 kts 42°
2026-05-06 01:51 40.05952 -80.76544 11108 ft 370 kts 44°
2026-05-06 01:51 40.07728 -80.74206 10848 ft 354 kts 44°
2026-05-06 01:51 40.09437 -80.72004 10594 ft 338 kts 43°
2026-05-06 01:52 40.10540 -80.70593 10433 ft 332 kts 43°
2026-05-06 01:52 40.12729 -80.67805 10148 ft 333 kts 44°
2026-05-06 01:52 40.14399 -80.65696 9922 ft 334 kts 43°
2026-05-06 01:52 40.16078 -80.63593 9706 ft 335 kts 43°
2026-05-06 01:53 40.17768 -80.61492 9462 ft 335 kts 43°
2026-05-06 01:53 40.18915 -80.60073 9293 ft 336 kts 43°
2026-05-06 01:53 40.20603 -80.57991 9050 ft 332 kts 43°
2026-05-06 01:53 40.22282 -80.55933 8786 ft 328 kts 43°
2026-05-06 01:54 40.23890 -80.53891 8537 ft 324 kts 48°
2026-05-06 01:54 40.25370 -80.51677 8308 ft 323 kts 51°
2026-05-06 01:54 40.26814 -80.49444 8064 ft 321 kts 51°
2026-05-06 01:54 40.28270 -80.47183 7827 ft 320 kts 51°
2026-05-06 01:55 40.29681 -80.44988 7597 ft 319 kts 51°
2026-05-06 01:55 40.31109 -80.42764 7383 ft 319 kts 51°
2026-05-06 01:55 40.32530 -80.40543 7156 ft 318 kts 51°
2026-05-06 01:55 40.33951 -80.38326 6893 ft 318 kts 51°
2026-05-06 01:56 40.35369 -80.36105 6668 ft 317 kts 51°
2026-05-06 01:56 40.36776 -80.33895 6439 ft 315 kts 51°
2026-05-06 01:56 40.38201 -80.31659 6211 ft 315 kts 51°
2026-05-06 01:56 40.39584 -80.29490 5965 ft 313 kts 51°
2026-05-06 01:57 40.40997 -80.27274 5725 ft 312 kts 50°
2026-05-06 01:57 40.42366 -80.25112 5488 ft 312 kts 51°
2026-05-06 01:57 40.43738 -80.22921 5252 ft 310 kts 51°
2026-05-06 01:57 40.45104 -80.20748 5054 ft 306 kts 52°
2026-05-06 01:58 40.46125 -80.18278 5003 ft 304 kts 78°
2026-05-06 01:58 40.46256 -80.15578 4987 ft 294 kts 103°
2026-05-06 01:58 40.45828 -80.12965 4476 ft 292 kts 109°
2026-05-06 01:58 40.45311 -80.10431 4080 ft 283 kts 110°
2026-05-06 01:59 40.44799 -80.07972 3692 ft 275 kts 110°
2026-05-06 01:59 40.44297 -80.05582 3354 ft 269 kts 110°
2026-05-06 01:59 40.43840 -80.03254 3055 ft 265 kts 101°
2026-05-06 01:59 40.44044 -80.00864 3024 ft 260 kts 70°
2026-05-06 02:00 40.45048 -79.99009 3001 ft 249 kts 36°
2026-05-06 02:00 40.46580 -79.98073 3002 ft 241 kts
2026-05-06 02:00 40.48236 -79.97759 3013 ft 243 kts
2026-05-06 02:00 40.49916 -79.97514 2972 ft 245 kts
2026-05-06 02:01 40.51612 -79.97271 2977 ft 245 kts
2026-05-06 02:01 40.53207 -79.96470 2991 ft 252 kts 34°
2026-05-06 02:01 40.54304 -79.94707 3015 ft 250 kts 69°
2026-05-06 02:01 40.54585 -79.92515 2976 ft 240 kts 102°
2026-05-06 02:02 40.53997 -79.90581 3013 ft 223 kts 137°
2026-05-06 02:02 40.52791 -79.89467 3028 ft 205 kts 171°
2026-05-06 02:02 40.51404 -79.89450 3017 ft 196 kts 198°
2026-05-06 02:02 40.50069 -79.89884 3015 ft 201 kts 200°
2026-05-06 02:03 40.48713 -79.90379 3013 ft 204 kts 200°
2026-05-06 02:03 40.47398 -79.90966 2967 ft 194 kts 216°
2026-05-06 02:03 40.46630 -79.92295 3020 ft 187 kts 247°
2026-05-06 02:03 40.46369 -79.94017 3019 ft 198 kts 265°
2026-05-06 02:04 40.46664 -79.95825 3021 ft 207 kts 285°
2026-05-06 02:04 40.47247 -79.97566 2999 ft 209 kts 288°
2026-05-06 02:04 40.47857 -79.99290 3011 ft 207 kts 288°
2026-05-06 02:04 40.48455 -80.00995 3019 ft 204 kts 288°
2026-05-06 02:05 40.49044 -80.02682 3026 ft 203 kts 288°
2026-05-06 02:05 40.49465 -80.04414 3036 ft 197 kts 273°
2026-05-06 02:05 40.49649 -80.06221 3021 ft 200 kts 271°
2026-05-06 02:05 40.49744 -80.08059 2993 ft 203 kts 268°
2026-05-06 02:06 40.49796 -80.09894 2997 ft 201 kts 268°
2026-05-06 02:06 40.49839 -80.11702 2954 ft 202 kts 268°
2026-05-06 02:06 40.49886 -80.13513 2699 ft 189 kts 268°
2026-05-06 02:06 40.49928 -80.15178 2433 ft 175 kts 267°
2026-05-06 02:07 40.49965 -80.16706 2208 ft 161 kts 269°
2026-05-06 02:07 40.50001 -80.18115 2021 ft 148 kts 270°
2026-05-06 02:07 40.50035 -80.19454 1870 ft 142 kts 269°
2026-05-06 02:07 40.50067 -80.20700 1640 ft 131 kts 269°
2026-05-06 02:08 40.50096 -80.21887 1476 ft 133 kts 269°
2026-05-06 02:08 40.50138 -80.23131 1253 ft 133 kts 270°
2026-05-06 02:08 40.50159 -80.24228 1191 ft 94 kts 272°
2026-05-06 02:08 40.50174 -80.24796 1193 ft 32 kts 272°
2026-05-06 02:09 40.50131 -80.25033 1193 ft 16 kts 187°
2026-05-06 02:09 40.50086 -80.24993 1192 ft 0 kts 137°
2026-05-06 02:09 40.50085 -80.24993 1192 ft 1 kts 137°
2026-05-06 02:09 40.50067 -80.24920 1192 ft 12 kts 92°
2026-05-06 02:10 40.50064 -80.24810 1195 ft 12 kts 92°
2026-05-06 02:10 40.50061 -80.24690 1195 ft 14 kts 92°
2026-05-06 02:10 40.50057 -80.24543 1194 ft 18 kts 91°
2026-05-06 02:10 40.49981 -80.24441 1192 ft 20 kts 181°
2026-05-06 02:11 40.49844 -80.24486 1184 ft 22 kts 198°
2026-05-06 02:11 40.49749 -80.24570 1173 ft 13 kts 229°
2026-05-06 02:11 40.49691 -80.24570 1173 ft 7 kts 128°
2026-05-06 02:11 40.49674 -80.24548 1172 ft 0 kts 136°